Hourly Data Report for October 17, 2013

All times are specified in Local Standard Time (LST). Add 1 hour to adjust for Daylight Saving Time where and when it is observed.

GRISE FIORD CLIMATE
NUNAVUT

76°25'22.040" N
82°54'08.020" W
44.50 m
2402351
71971
NGC

Download Data

Hourly Data (October 2013)
Hourly Data Report for October 17, 2013
Temp Definition
°C
Dew Point Temp Definition
°C
Rel Hum Definition
%
Wind Dir Definition
10's deg

Wind Spd Definition
km/h
Visibility Definition
km
Stn Press Definition
kPa
Hmdx Definition


Wind Chill Definition


Weather Definition


TIME
00:00 1.2 -3.5 71 9 13   100.38     LegendNANA
01:00 1.2 -3.4 71 7 13   100.41     LegendNANA
02:00 1.5 -3.1 71 9 19   100.43     LegendNANA
03:00 1.2 -2.3 77 8 20   100.45     LegendNANA
04:00 0.8 -1.9 82 8 19   100.46     LegendNANA
05:00 1.6 -2.0 77 8 33   100.44     LegendNANA
06:00 1.6 -2.1 76 8 15   100.55     LegendNANA
07:00 1.1 -2.3 78 7 30   100.54     LegendNANA
08:00 0.9 -2.4 79 6 22   100.64     LegendNANA
09:00 -0.4 -2.8 84 10 9   100.66   -4 LegendNANA
10:00 -1.4 -2.3 94 27 6   100.69   -4 LegendNANA
11:00 -1.2 -2.4 92 13 7   100.71   -4 LegendNANA
12:00 0.7 -3.3 75 5 19   100.70     LegendNANA
13:00 -1.3 -4.2 81 13 6   100.75   -4 LegendNANA
14:00 -1.1 -4.4 78 6 9   100.75   -4 LegendNANA
15:00 0.2 -4.1 73 5 17   100.77     LegendNANA
16:00 -2.7 -4.4 88 27 6   100.81   -5 LegendNANA
17:00 -3.3 -4.3 93 30 6   100.80   -6 LegendNANA
18:00 -3.2 -4.5 91 4 2   100.86   -4 LegendNANA
19:00 -3.9 -4.9 93 32 6   100.88   -7 LegendNANA
20:00 -4.7 -5.4 95 3 4   100.90   -6 LegendNANA
21:00 -5.8 -7.2 90 35 2   100.89   -7 LegendNANA
22:00 -6.1 -7.3 91 4 2   100.90   -7 LegendNANA
23:00 -5.1 -6.0 93   0   100.92     LegendNANA

Notes on Data Quality.

Legend

  • E = Estimated
  • M = Missing
  • NA = Not Available
  • ‡ = Partner data that is not subject to review by the National Climate Archives
Date modified: